^^
Saratoga-Weather Station Historical Data
Daily Summary for August 13, 2020 Units:  Metric    English   Both
Daily Weekly Monthly Yearly Custom
  High: Low: Average:
Temperature: 29 °C 10.3 °C 18.8 °C
Dew Point: 14.1 °C 4.1 °C 10.1 °C
Humidity: 94% 21% 62%
Wind Speed: 9.7km/h 0km/h 1km/h
Wind Gust: 11.3km/h - -
Wind- - SE
Pressure: 1025.7 hPa 1022.4 hPa -
Precipitation: 0.0 mm    
Historical Graphs
 
 
Tabular Data for August 13, 2020
Time Temperature Dew Point Pressure Wind Wind Speed Wind Gust Humidity Rainfall Rate (Hourly) solar
00:04 17.1 °C 10.7 °C 1022.4 hPa West 1.4 km/h 8 km/h 66% 0.0 mm 0 W/m2
00:09 17.1 °C 10.7 °C 1022.4 hPa WSW 6.4 km/h 9.7 km/h 66% 0.0 mm 0 W/m2
00:14 17.2 °C 10.6 °C 1022.4 hPa WSW 3.2 km/h 9.7 km/h 65% 0.0 mm 0 W/m2
00:19 17.3 °C 10.7 °C 1022.4 hPa WNW 3.2 km/h 8 km/h 65% 0.0 mm 0 W/m2
00:24 17.3 °C 10.7 °C 1022.4 hPa WSW 3.2 km/h 6.4 km/h 65% 0.0 mm 0 W/m2
00:29 17.3 °C 10.7 °C 1022.4 hPa WSW 6.4 km/h 6.4 km/h 65% 0.0 mm 0 W/m2
00:34 17.3 °C 10.9 °C 1022.7 hPa WSW 1.4 km/h 4.8 km/h 66% 0.0 mm 0 W/m2
00:39 17.3 °C 10.9 °C 1022.4 hPa WSW 4.7 km/h 6.4 km/h 66% 0.0 mm 0 W/m2
00:44 17.2 °C 10.8 °C 1022.7 hPa WSW 3.2 km/h 4.8 km/h 66% 0.0 mm 0 W/m2
00:49 17.2 °C 10.8 °C 1022.7 hPa WSW 1.4 km/h 6.4 km/h 66% 0.0 mm 0 W/m2
00:55 17.2 °C 11 °C 1022.7 hPa WSW 3.2 km/h 4.8 km/h 67% 0.0 mm 0 W/m2
01:00 17.1 °C 10.9 °C 1022.4 hPa Calm     67% 0.0 mm 0 W/m2
01:05 16.8 °C 10.6 °C 1022.4 hPa Calm     67% 0.0 mm 0 W/m2
01:10 16.6 °C 10.7 °C 1022.7 hPa Calm     68% 0.0 mm 0 W/m2
01:15 16.2 °C 10.5 °C 1022.7 hPa WSW 1.4 km/h 3.2 km/h 69% 0.0 mm 0 W/m2
01:20 15.9 °C 10.6 °C 1022.7 hPa Calm   1.6 km/h 71% 0.0 mm 0 W/m2
01:25 15.6 °C 10.6 °C 1022.7 hPa Calm   3.2 km/h 72% 0.0 mm 0 W/m2
01:30 15.3 °C 10.5 °C 1022.7 hPa Calm   1.6 km/h 73% 0.0 mm 0 W/m2
01:35 15.2 °C 10.4 °C 1022.7 hPa Calm     73% 0.0 mm 0 W/m2
01:40 14.9 °C 10.3 °C 1022.7 hPa Calm     74% 0.0 mm 0 W/m2
01:45 14.7 °C 10.3 °C 1022.7 hPa WSW 1.4 km/h 1.6 km/h 75% 0.0 mm 0 W/m2
01:50 14.6 °C 10.4 °C 1023.0 hPa Calm     76% 0.0 mm 0 W/m2
01:55 14.4 °C 10.4 °C 1023.0 hPa Calm     77% 0.0 mm 0 W/m2
02:00 14.3 °C 10.3 °C 1022.7 hPa Calm     77% 0.0 mm 0 W/m2
02:05 14.2 °C 10.4 °C 1022.7 hPa Calm     78% 0.0 mm 0 W/m2
02:10 14 °C 10.4 °C 1023.0 hPa Calm     79% 0.0 mm 0 W/m2
02:15 13.9 °C 10.3 °C 1023.0 hPa Calm     79% 0.0 mm 0 W/m2
02:20 13.9 °C 10.5 °C 1023.0 hPa Calm     80% 0.0 mm 0 W/m2
02:25 13.8 °C 10.4 °C 1023.0 hPa Calm     80% 0.0 mm 0 W/m2
02:30 13.7 °C 10.5 °C 1023.0 hPa Calm     81% 0.0 mm 0 W/m2
02:35 13.6 °C 10.4 °C 1023.0 hPa Calm     81% 0.0 mm 0 W/m2
02:40 13.5 °C 10.3 °C 1023.0 hPa Calm     81% 0.0 mm 0 W/m2
02:45 13.4 °C 10.4 °C 1023.0 hPa Calm     82% 0.0 mm 0 W/m2
02:50 13.3 °C 10.3 °C 1023.0 hPa Calm     82% 0.0 mm 0 W/m2
02:56 13.3 °C 10.5 °C 1023.0 hPa Calm     83% 0.0 mm 0 W/m2
03:01 13.3 °C 10.7 °C 1023.0 hPa WSW 3.2 km/h 3.2 km/h 84% 0.0 mm 0 W/m2
03:06 13.3 °C 10.7 °C 1023.0 hPa Calm   1.6 km/h 84% 0.0 mm 0 W/m2
03:11 13.3 °C 10.8 °C 1023.0 hPa Calm     85% 0.0 mm 0 W/m2
03:16 13.4 °C 10.8 °C 1023.0 hPa Calm     84% 0.0 mm 0 W/m2
03:21 13.4 °C 10.9 °C 1023.0 hPa Calm     85% 0.0 mm 0 W/m2
03:26 13.4 °C 10.8 °C 1023.0 hPa Calm     84% 0.0 mm 0 W/m2
03:31 13.4 °C 10.8 °C 1023.4 hPa Calm     84% 0.0 mm 0 W/m2
03:36 13.3 °C 10.7 °C 1023.4 hPa Calm     84% 0.0 mm 0 W/m2
03:41 13.3 °C 10.7 °C 1023.4 hPa Calm     84% 0.0 mm 0 W/m2
03:46 13.2 °C 10.6 °C 1023.4 hPa Calm     84% 0.0 mm 0 W/m2
03:51 13.1 °C 10.6 °C 1023.4 hPa Calm     85% 0.0 mm 0 W/m2
03:56 13.1 °C 10.6 °C 1023.4 hPa Calm     85% 0.0 mm 0 W/m2
04:01 12.9 °C 10.4 °C 1023.4 hPa Calm     85% 0.0 mm 0 W/m2
04:06 12.8 °C 10.5 °C 1023.4 hPa Calm     86% 0.0 mm 0 W/m2
04:11 12.7 °C 10.4 °C 1023.4 hPa Calm     86% 0.0 mm 0 W/m2
04:17 12.7 °C 10.4 °C 1023.4 hPa Calm     86% 0.0 mm 0 W/m2
04:22 12.7 °C 10.6 °C 1023.4 hPa Calm     87% 0.0 mm 0 W/m2
04:27 12.6 °C 10.5 °C 1023.4 hPa Calm   1.6 km/h 87% 0.0 mm 0 W/m2
04:32 12.6 °C 10.5 °C 1023.4 hPa Calm   1.6 km/h 87% 0.0 mm 0 W/m2
04:37 12.6 °C 10.5 °C 1023.4 hPa Calm   1.6 km/h 87% 0.0 mm 0 W/m2
04:42 12.5 °C 10.4 °C 1023.4 hPa Calm     87% 0.0 mm 0 W/m2
04:47 12.4 °C 10.3 °C 1023.4 hPa Calm   1.6 km/h 87% 0.0 mm 0 W/m2
04:52 12.4 °C 10.3 °C 1023.4 hPa Calm     87% 0.0 mm 0 W/m2
04:57 12.3 °C 10.2 °C 1023.0 hPa Calm     87% 0.0 mm 0 W/m2
05:02 12.2 °C 10.3 °C 1023.0 hPa Calm     88% 0.0 mm 0 W/m2
05:07 12.2 °C 10.3 °C 1023.0 hPa Calm     88% 0.0 mm 0 W/m2
05:12 12.1 °C 10.2 °C 1023.4 hPa Calm     88% 0.0 mm 0 W/m2
05:17 11.9 °C 10 °C 1023.0 hPa Calm     88% 0.0 mm 0 W/m2
05:22 11.8 °C 10 °C 1023.4 hPa Calm     89% 0.0 mm 0 W/m2
05:27 11.7 °C 9.9 °C 1023.4 hPa Calm     89% 0.0 mm 0 W/m2
05:32 11.7 °C 9.9 °C 1023.0 hPa Calm     89% 0.0 mm 0 W/m2
05:37 11.6 °C 10 °C 1023.0 hPa Calm     90% 0.0 mm 0 W/m2
05:42 11.6 °C 10.2 °C 1023.0 hPa Calm     91% 0.0 mm 0 W/m2
05:47 11.6 °C 10.2 °C 1023.0 hPa Calm     91% 0.0 mm 0 W/m2
05:52 11.5 °C 10.1 °C 1023.0 hPa Calm     91% 0.0 mm 0 W/m2
05:57 11.4 °C 10 °C 1023.0 hPa Calm     91% 0.0 mm 0 W/m2
06:02 11.4 °C 10 °C 1023.0 hPa Calm     91% 0.0 mm 0 W/m2
06:07 11.3 °C 9.9 °C 1023.4 hPa Calm     91% 0.0 mm 0 W/m2
06:12 11.2 °C 9.8 °C 1023.4 hPa Calm     91% 0.0 mm 0 W/m2
06:17 11.2 °C 9.9 °C 1023.4 hPa Calm     92% 0.0 mm 0 W/m2
06:22 11.1 °C 9.8 °C 1023.4 hPa Calm     92% 0.0 mm 0 W/m2
06:27 11.1 °C 9.8 °C 1023.4 hPa Calm     92% 0.0 mm 0 W/m2
06:32 11 °C 9.8 °C 1023.7 hPa Calm     92% 0.0 mm 0 W/m2
06:37 10.9 °C 9.7 °C 1023.7 hPa Calm     92% 0.0 mm 0 W/m2
06:42 10.8 °C 9.6 °C 1023.4 hPa Calm     92% 0.0 mm 0 W/m2
06:47 10.8 °C 9.6 °C 1023.4 hPa Calm     92% 0.0 mm 0 W/m2
06:52 10.8 °C 9.6 °C 1023.4 hPa Calm     92% 0.0 mm 0 W/m2
06:57 10.7 °C 9.5 °C 1023.4 hPa Calm     92% 0.0 mm 0 W/m2
07:02 10.6 °C 9.4 °C 1023.4 hPa Calm     92% 0.0 mm 0 W/m2
07:07 10.4 °C 9.2 °C 1023.7 hPa Calm     92% 0.0 mm 0 W/m2
07:12 10.4 °C 9.2 °C 1023.7 hPa Calm     92% 0.0 mm 0 W/m2
07:17 10.3 °C 9.2 °C 1023.7 hPa Calm     93% 0.0 mm 5 W/m2
07:22 10.4 °C 9.3 °C 1023.7 hPa Calm     93% 0.0 mm 9 W/m2
07:27 10.4 °C 9.3 °C 1024.0 hPa Calm     93% 0.0 mm 9 W/m2
07:32 10.5 °C 9.4 °C 1024.0 hPa Calm     93% 0.0 mm 11 W/m2
07:37 10.5 °C 9.4 °C 1024.0 hPa Calm     93% 0.0 mm 12 W/m2
07:43 10.6 °C 9.5 °C 1024.0 hPa Calm     93% 0.0 mm 14 W/m2
07:48 10.6 °C 9.5 °C 1024.0 hPa Calm     93% 0.0 mm 16 W/m2
07:53 10.5 °C 9.6 °C 1024.0 hPa Calm     94% 0.0 mm 16 W/m2
07:58 10.6 °C 9.7 °C 1024.4 hPa Calm     94% 0.0 mm 18 W/m2
08:03 10.6 °C 9.7 °C 1024.4 hPa Calm     94% 0.0 mm 19 W/m2
08:08 10.7 °C 9.8 °C 1024.4 hPa Calm     94% 0.0 mm 19 W/m2
08:13 10.8 °C 9.9 °C 1024.4 hPa Calm     94% 0.0 mm 21 W/m2
08:18 11 °C 10.1 °C 1024.7 hPa Calm     94% 0.0 mm 23 W/m2
08:23 11.1 °C 10.2 °C 1024.7 hPa Calm     94% 0.0 mm 26 W/m2
08:28 11.2 °C 10.3 °C 1024.7 hPa Calm     94% 0.0 mm 102 W/m2
08:33 11.4 °C 10.5 °C 1024.7 hPa Calm     94% 0.0 mm 123 W/m2
08:38 11.6 °C 10.7 °C 1024.7 hPa Calm     94% 0.0 mm 134 W/m2
08:43 11.7 °C 10.8 °C 1024.7 hPa Calm     94% 0.0 mm 151 W/m2
08:48 11.9 °C 11 °C 1025.1 hPa Calm     94% 0.0 mm 162 W/m2
08:53 12.2 °C 11.1 °C 1025.1 hPa Calm     93% 0.0 mm 33 W/m2
08:58 12.5 °C 11.4 °C 1025.1 hPa Calm     93% 0.0 mm 40 W/m2
09:03 12.8 °C 11.5 °C 1025.1 hPa Calm     92% 0.0 mm 188 W/m2
09:08 13.1 °C 11.7 °C 1025.1 hPa Calm     91% 0.0 mm 220 W/m2
09:13 13.4 °C 11.8 °C 1025.1 hPa Calm   1.6 km/h 90% 0.0 mm 237 W/m2
09:18 13.8 °C 12 °C 1025.1 hPa ENE 3.2 km/h 3.2 km/h 89% 0.0 mm 169 W/m2
09:23 14.2 °C 11.9 °C 1025.1 hPa Calm   1.6 km/h 86% 0.0 mm 39 W/m2
09:28 14.6 °C 11.9 °C 1025.1 hPa NNE 3.2 km/h 4.8 km/h 84% 0.0 mm 39 W/m2
09:33 14.9 °C 12 °C 1025.1 hPa ESE 1.4 km/h 3.2 km/h 83% 0.0 mm 40 W/m2
09:38 15.3 °C 12.1 °C 1025.1 hPa Calm   4.8 km/h 81% 0.0 mm 40 W/m2
09:43 15.6 °C 12.4 °C 1025.4 hPa ESE 1.4 km/h 3.2 km/h 81% 0.0 mm 42 W/m2
09:48 16 °C 12.6 °C 1025.4 hPa North 1.4 km/h 1.6 km/h 80% 0.0 mm 42 W/m2
09:53 16.2 °C 12.4 °C 1025.4 hPa North 1.4 km/h 3.2 km/h 78% 0.0 mm 42 W/m2
09:58 16.3 °C 12.5 °C 1025.4 hPa Calm     78% 0.0 mm 44 W/m2
10:03 16.6 °C 12.7 °C 1025.4 hPa North 3.2 km/h 3.2 km/h 78% 0.0 mm 44 W/m2
10:08 16.9 °C 12.6 °C 1025.4 hPa SSW 1.4 km/h 3.2 km/h 76% 0.0 mm 44 W/m2
10:13 17.1 °C 12.6 °C 1025.4 hPa WNW 1.4 km/h 3.2 km/h 75% 0.0 mm 46 W/m2
10:18 17.2 °C 12.9 °C 1025.4 hPa WNW 1.4 km/h 1.6 km/h 76% 0.0 mm 46 W/m2
10:23 17.3 °C 12.8 °C 1025.4 hPa WNW 1.4 km/h 1.6 km/h 75% 0.0 mm 47 W/m2
10:28 17.5 °C 13 °C 1025.4 hPa West 3.2 km/h 3.2 km/h 75% 0.0 mm 47 W/m2
10:34 17.6 °C 12.9 °C 1025.4 hPa West 3.2 km/h 4.8 km/h 74% 0.0 mm 47 W/m2
10:39 17.7 °C 13 °C 1025.4 hPa Calm   3.2 km/h 74% 0.0 mm 46 W/m2
10:44 18.1 °C 13.4 °C 1025.4 hPa Calm   4.8 km/h 74% 0.0 mm 46 W/m2
10:49 18.5 °C 13.6 °C 1025.4 hPa ENE 1.4 km/h 6.4 km/h 73% 0.0 mm 46 W/m2
10:54 18.9 °C 13.5 °C 1025.4 hPa ENE 3.2 km/h 3.2 km/h 71% 0.0 mm 46 W/m2
10:59 19.1 °C 13.5 °C 1025.4 hPa ESE 1.4 km/h 6.4 km/h 70% 0.0 mm 46 W/m2
11:04 19.3 °C 13.7 °C 1025.4 hPa Calm   3.2 km/h 70% 0.0 mm 47 W/m2
11:09 19.4 °C 13.6 °C 1025.4 hPa ESE 3.2 km/h 4.8 km/h 69% 0.0 mm 47 W/m2
11:14 19.6 °C 13.5 °C 1025.4 hPa NW 1.4 km/h 1.6 km/h 68% 0.0 mm 49 W/m2
11:19 19.7 °C 13.4 °C 1025.4 hPa East 1.4 km/h 4.8 km/h 67% 0.0 mm 51 W/m2
11:24 19.8 °C 13.5 °C 1025.7 hPa ESE 3.2 km/h 6.4 km/h 67% 0.0 mm 53 W/m2
11:29 20 °C 13.7 °C 1025.7 hPa SE 3.2 km/h 4.8 km/h 67% 0.0 mm 53 W/m2
11:34 20.3 °C 13.7 °C 1025.4 hPa ENE 6.4 km/h 8 km/h 66% 0.0 mm 53 W/m2
11:39 20.5 °C 13.7 °C 1025.4 hPa North 1.4 km/h 3.2 km/h 65% 0.0 mm 125 W/m2
11:44 20.6 °C 13.6 °C 1025.4 hPa Calm   4.8 km/h 64% 0.0 mm 545 W/m2
11:49 20.8 °C 13.7 °C 1025.7 hPa NE 1.4 km/h 4.8 km/h 64% 0.0 mm 603 W/m2
11:54 21.2 °C 13.6 °C 1025.4 hPa NE 1.4 km/h 3.2 km/h 62% 0.0 mm 612 W/m2
11:59 21.3 °C 13.7 °C 1025.4 hPa Calm   6.4 km/h 62% 0.0 mm 621 W/m2
12:04 21.6 °C 14 °C 1025.7 hPa Calm   1.6 km/h 62% 0.0 mm 626 W/m2
12:09 21.8 °C 13.9 °C 1025.7 hPa Calm   4.8 km/h 61% 0.0 mm 635 W/m2
12:14 22.2 °C 13.8 °C 1025.4 hPa WNW 1.4 km/h 3.2 km/h 59% 0.0 mm 643 W/m2
12:19 22.5 °C 13.8 °C 1025.4 hPa East 4.7 km/h 6.4 km/h 58% 0.0 mm 649 W/m2
12:24 22.8 °C 14.1 °C 1025.4 hPa NE 1.4 km/h 4.8 km/h 58% 0.0 mm 654 W/m2
12:29 22.9 °C 13.9 °C 1025.4 hPa SSE 1.4 km/h 3.2 km/h 57% 0.0 mm 661 W/m2
12:34 22.9 °C 13.7 °C 1025.4 hPa Calm   1.6 km/h 56% 0.0 mm 666 W/m2
12:39 23.1 °C 13.8 °C 1025.4 hPa Calm     56% 0.0 mm 673 W/m2
12:44 23.3 °C 13.5 °C 1025.4 hPa East 1.4 km/h 4.8 km/h 54% 0.0 mm 679 W/m2
12:49 23.4 °C 13.6 °C 1025.4 hPa Calm   3.2 km/h 54% 0.0 mm 680 W/m2
12:54 23.5 °C 13.7 °C 1025.1 hPa South 1.4 km/h 1.6 km/h 54% 0.0 mm 684 W/m2
12:59 23.7 °C 13.6 °C 1025.1 hPa NE 3.2 km/h 8 km/h 53% 0.0 mm 686 W/m2
13:04 23.6 °C 13.5 °C 1025.1 hPa NW 3.2 km/h 4.8 km/h 53% 0.0 mm 686 W/m2
13:09 23.6 °C 13.2 °C 1025.1 hPa Calm   1.6 km/h 52% 0.0 mm 689 W/m2
13:14 23.8 °C 13.4 °C 1025.1 hPa East 9.7 km/h 9.7 km/h 52% 0.0 mm 694 W/m2
13:19 24.1 °C 13.3 °C 1025.1 hPa SE 1.4 km/h 3.2 km/h 51% 0.0 mm 696 W/m2
13:24 24.4 °C 13.3 °C 1025.1 hPa East 1.4 km/h 6.4 km/h 50% 0.0 mm 694 W/m2
13:29 24.6 °C 13.2 °C 1025.1 hPa Calm   3.2 km/h 49% 0.0 mm 696 W/m2
13:34 24.7 °C 13.6 °C 1025.1 hPa SE 3.2 km/h 6.4 km/h 50% 0.0 mm 696 W/m2
13:39 24.7 °C 13.3 °C 1025.1 hPa Calm   1.6 km/h 49% 0.0 mm 698 W/m2
13:44 24.9 °C 13.1 °C 1025.1 hPa NE 3.2 km/h 8 km/h 48% 0.0 mm 698 W/m2
13:49 25.2 °C 13.1 °C 1025.1 hPa Calm   4.8 km/h 47% 0.0 mm 698 W/m2
13:54 25.4 °C 12.9 °C 1025.1 hPa ENE 1.4 km/h 3.2 km/h 46% 0.0 mm 698 W/m2
13:59 25.5 °C 12.4 °C 1024.7 hPa NE 1.4 km/h 8 km/h 44% 0.0 mm 700 W/m2
14:04 25.4 °C 12.9 °C 1024.7 hPa Calm   3.2 km/h 46% 0.0 mm 694 W/m2
14:09 25.6 °C 12.8 °C 1024.7 hPa NE 3.2 km/h 8 km/h 45% 0.0 mm 694 W/m2
14:14 25.8 °C 13 °C 1024.4 hPa ESE 4.7 km/h 4.8 km/h 45% 0.0 mm 693 W/m2
14:19 26.1 °C 13.2 °C 1024.4 hPa Calm   11.3 km/h 45% 0.0 mm 693 W/m2
14:24 26.3 °C 12 °C 1024.4 hPa North 1.4 km/h 4.8 km/h 41% 0.0 mm 689 W/m2
14:29 26.4 °C 12.1 °C 1024.4 hPa NNW 3.2 km/h 9.7 km/h 41% 0.0 mm 686 W/m2
14:34 26.7 °C 12.4 °C 1024.4 hPa ENE 6.4 km/h 6.4 km/h 41% 0.0 mm 682 W/m2
14:39 26.8 °C 11.7 °C 1024.4 hPa ENE 3.2 km/h 9.7 km/h 39% 0.0 mm 682 W/m2
14:44 26.9 °C 11.4 °C 1024.4 hPa Calm   4.8 km/h 38% 0.0 mm 677 W/m2
14:49 26.9 °C 12.5 °C 1024.4 hPa NE 1.4 km/h 9.7 km/h 41% 0.0 mm 673 W/m2
14:54 27 °C 11.9 °C 1024.0 hPa East 1.4 km/h 4.8 km/h 39% 0.0 mm 666 W/m2
14:59 27.2 °C 12 °C 1024.0 hPa NE 1.4 km/h 6.4 km/h 39% 0.0 mm 659 W/m2
15:04 27.3 °C 12.1 °C 1024.0 hPa Calm   3.2 km/h 39% 0.0 mm 654 W/m2
15:09 27.4 °C 11.4 °C 1024.0 hPa NE 3.2 km/h 6.4 km/h 37% 0.0 mm 649 W/m2
15:14 27.4 °C 11.4 °C 1024.0 hPa NNE 3.2 km/h 4.8 km/h 37% 0.0 mm 643 W/m2
15:19 27.5 °C 11.1 °C 1024.0 hPa East 4.7 km/h 6.4 km/h 36% 0.0 mm 638 W/m2
15:24 27.7 °C 11.3 °C 1024.0 hPa ENE 4.7 km/h 8 km/h 36% 0.0 mm 629 W/m2
15:29 27.8 °C 10.9 °C 1024.0 hPa East 4.7 km/h 6.4 km/h 35% 0.0 mm 622 W/m2
15:34 27.8 °C 10.9 °C 1024.0 hPa East 7.9 km/h 8 km/h 35% 0.0 mm 615 W/m2
15:39 28.1 °C 11.2 °C 1023.7 hPa SE 1.4 km/h 3.2 km/h 35% 0.0 mm 608 W/m2
15:44 28.2 °C 10.8 °C 1023.7 hPa SSE 1.4 km/h 1.6 km/h 34% 0.0 mm 601 W/m2
15:49 28.4 °C 11.5 °C 1023.7 hPa Calm   1.6 km/h 35% 0.0 mm 594 W/m2
15:54 28.5 °C 10.7 °C 1023.7 hPa East 3.2 km/h 4.8 km/h 33% 0.0 mm 582 W/m2
15:59 28.6 °C 11.2 °C 1023.7 hPa Calm   1.6 km/h 34% 0.0 mm 577 W/m2
16:05 28.8 °C 11.4 °C 1023.4 hPa SE 1.4 km/h 3.2 km/h 34% 0.0 mm 568 W/m2
16:10 28.8 °C 10.5 °C 1023.7 hPa West 3.2 km/h 4.8 km/h 32% 0.0 mm 559 W/m2
16:15 28.8 °C 10.5 °C 1023.7 hPa ENE 1.4 km/h 1.6 km/h 32% 0.0 mm 548 W/m2
16:20 28.8 °C 10.9 °C 1023.7 hPa ESE 3.2 km/h 4.8 km/h 33% 0.0 mm 538 W/m2
16:25 28.8 °C 10 °C 1023.7 hPa Calm   6.4 km/h 31% 0.0 mm 533 W/m2
16:30 28.8 °C 10 °C 1023.4 hPa East 4.7 km/h 6.4 km/h 31% 0.0 mm 522 W/m2
16:35 28.8 °C 9.5 °C 1023.4 hPa NNE 3.2 km/h 6.4 km/h 30% 0.0 mm 513 W/m2
16:40 29 °C 9.7 °C 1023.4 hPa ENE 3.2 km/h 6.4 km/h 30% 0.0 mm 504 W/m2
16:45 28.9 °C 9.1 °C 1023.4 hPa Calm   3.2 km/h 29% 0.0 mm 494 W/m2
16:50 28.9 °C 9.1 °C 1023.4 hPa ENE 1.4 km/h 1.6 km/h 29% 0.0 mm 482 W/m2
16:55 28.9 °C 9.6 °C 1023.4 hPa East 4.7 km/h 6.4 km/h 30% 0.0 mm 469 W/m2
17:00 28.7 °C 7.9 °C 1023.4 hPa SE 6.4 km/h 6.4 km/h 27% 0.0 mm 457 W/m2
17:05 28.6 °C 8.3 °C 1023.4 hPa ENE 1.4 km/h 6.4 km/h 28% 0.0 mm 443 W/m2
17:10 28.7 °C 6.7 °C 1023.4 hPa Calm   1.6 km/h 25% 0.0 mm 434 W/m2
17:15 28.9 °C 8.6 °C 1023.4 hPa East 1.4 km/h 3.2 km/h 28% 0.0 mm 422 W/m2
17:20 28.7 °C 4.9 °C 1023.0 hPa Calm   4.8 km/h 22% 0.0 mm 408 W/m2
17:25 28.7 °C 7.3 °C 1023.4 hPa ENE 1.4 km/h 1.6 km/h 26% 0.0 mm 396 W/m2
17:30 28.6 °C 4.1 °C 1023.4 hPa Calm   4.8 km/h 21% 0.0 mm 385 W/m2
17:35 28.7 °C 7.3 °C 1023.4 hPa Calm   1.6 km/h 26% 0.0 mm 374 W/m2
17:40 28.7 °C 6.7 °C 1023.4 hPa SE 3.2 km/h 3.2 km/h 25% 0.0 mm 359 W/m2
17:45 28.6 °C 6.1 °C 1023.4 hPa SE 1.4 km/h 1.6 km/h 24% 0.0 mm 343 W/m2
17:50 28.5 °C 6.6 °C 1023.0 hPa ESE 3.2 km/h 3.2 km/h 25% 0.0 mm 329 W/m2
17:55 28.3 °C 5.8 °C 1023.0 hPa Calm   1.6 km/h 24% 0.0 mm 311 W/m2
18:00 28.1 °C 6.8 °C 1023.0 hPa Calm   1.6 km/h 26% 0.0 mm 292 W/m2
18:05 28.1 °C 6.8 °C 1023.0 hPa SE 1.4 km/h 3.2 km/h 26% 0.0 mm 281 W/m2
18:10 28.1 °C 6.2 °C 1023.0 hPa Calm   1.6 km/h 25% 0.0 mm 264 W/m2
18:15 28.1 °C 7.3 °C 1023.0 hPa Calm   3.2 km/h 27% 0.0 mm 251 W/m2
18:20 28.1 °C 7.3 °C 1023.0 hPa Calm     27% 0.0 mm 234 W/m2
18:25 28.1 °C 7.9 °C 1023.0 hPa SE 1.4 km/h 3.2 km/h 28% 0.0 mm 220 W/m2
18:30 28.2 °C 8 °C 1023.0 hPa SE 1.4 km/h 1.6 km/h 28% 0.0 mm 206 W/m2
18:35 28.2 °C 8.5 °C 1023.0 hPa SE 1.4 km/h 3.2 km/h 29% 0.0 mm 188 W/m2
18:40 28.1 °C 8.4 °C 1023.0 hPa SE 3.2 km/h 3.2 km/h 29% 0.0 mm 174 W/m2
18:46 27.9 °C 8.2 °C 1023.0 hPa SE 1.4 km/h 3.2 km/h 29% 0.0 mm 158 W/m2
18:51 27.7 °C 8.5 °C 1023.0 hPa SE 1.4 km/h 3.2 km/h 30% 0.0 mm 139 W/m2
18:56 27.3 °C 8.2 °C 1023.0 hPa SE 1.4 km/h 3.2 km/h 30% 0.0 mm 123 W/m2
19:01 27.1 °C 8.5 °C 1023.0 hPa SSE 3.2 km/h 3.2 km/h 31% 0.0 mm 81 W/m2
19:06 26.8 °C 8.3 °C 1023.0 hPa SSE 1.4 km/h 3.2 km/h 31% 0.0 mm 26 W/m2
19:11 26.2 °C 8.2 °C 1023.0 hPa SSE 3.2 km/h 3.2 km/h 32% 0.0 mm 25 W/m2
19:16 25.6 °C 8.1 °C 1023.0 hPa SSE 3.2 km/h 3.2 km/h 33% 0.0 mm 21 W/m2
19:21 24.9 °C 7.5 °C 1023.0 hPa SSE 3.2 km/h 3.2 km/h 33% 0.0 mm 19 W/m2
19:26 24.4 °C 7.9 °C 1023.0 hPa SSE 1.4 km/h 3.2 km/h 35% 0.0 mm 18 W/m2
19:31 23.9 °C 7.1 °C 1023.0 hPa Calm   1.6 km/h 34% 0.0 mm 16 W/m2
19:36 23.5 °C 7.6 °C 1023.0 hPa Calm   1.6 km/h 36% 0.0 mm 12 W/m2
19:41 23.1 °C 7.2 °C 1023.0 hPa Calm   3.2 km/h 36% 0.0 mm 11 W/m2
19:46 22.7 °C 7.3 °C 1023.0 hPa Calm     37% 0.0 mm 7 W/m2
19:51 22.4 °C 7.4 °C 1023.0 hPa Calm     38% 0.0 mm 5 W/m2
19:56 22.1 °C 7.1 °C 1023.0 hPa Calm     38% 0.0 mm 0 W/m2
20:01 21.8 °C 6.8 °C 1023.0 hPa Calm     38% 0.0 mm 0 W/m2
20:06 21.5 °C 7 °C 1023.4 hPa Calm     39% 0.0 mm 0 W/m2
20:11 21.2 °C 6.7 °C 1023.4 hPa Calm     39% 0.0 mm 0 W/m2
20:16 20.9 °C 6.8 °C 1023.4 hPa Calm     40% 0.0 mm 0 W/m2
20:21 20.7 °C 6.6 °C 1023.4 hPa Calm     40% 0.0 mm 0 W/m2
20:26 20.4 °C 7.1 °C 1023.4 hPa Calm     42% 0.0 mm 0 W/m2
20:31 20.3 °C 7 °C 1023.4 hPa Calm     42% 0.0 mm 0 W/m2
20:36 20 °C 6.7 °C 1023.4 hPa Calm     42% 0.0 mm 0 W/m2
20:41 19.7 °C 6.8 °C 1023.4 hPa Calm     43% 0.0 mm 0 W/m2
20:46 19.5 °C 6.6 °C 1023.4 hPa Calm     43% 0.0 mm 0 W/m2
20:51 19.3 °C 6.4 °C 1023.4 hPa Calm     43% 0.0 mm 0 W/m2
20:57 19.1 °C 6.9 °C 1023.4 hPa Calm     45% 0.0 mm 0 W/m2
21:02 18.9 °C 7 °C 1023.4 hPa Calm     46% 0.0 mm 0 W/m2
21:07 18.7 °C 6.8 °C 1023.4 hPa Calm     46% 0.0 mm 0 W/m2
21:12 18.5 °C 7 °C 1023.4 hPa Calm     47% 0.0 mm 0 W/m2
21:17 18.3 °C 6.8 °C 1023.7 hPa Calm     47% 0.0 mm 0 W/m2
21:22 18.2 °C 6.7 °C 1023.7 hPa Calm     47% 0.0 mm 0 W/m2
21:27 18 °C 6.8 °C 1023.7 hPa Calm     48% 0.0 mm 0 W/m2
21:32 17.8 °C 6.9 °C 1023.7 hPa Calm     49% 0.0 mm 0 W/m2
21:37 17.7 °C 7.1 °C 1023.7 hPa Calm     50% 0.0 mm 0 W/m2
21:42 17.5 °C 7 °C 1024.0 hPa Calm     50% 0.0 mm 0 W/m2
21:47 17.4 °C 6.9 °C 1024.0 hPa Calm     50% 0.0 mm 0 W/m2
21:52 17.3 °C 7.1 °C 1024.0 hPa Calm     51% 0.0 mm 0 W/m2
21:57 17.2 °C 6.7 °C 1024.0 hPa Calm     50% 0.0 mm 0 W/m2
22:02 17.1 °C 6.6 °C 1024.0 hPa Calm     50% 0.0 mm 0 W/m2
22:07 17 °C 6.8 °C 1024.0 hPa Calm     51% 0.0 mm 0 W/m2
22:12 16.9 °C 7 °C 1024.0 hPa Calm     52% 0.0 mm 0 W/m2
22:17 16.8 °C 6.6 °C 1024.0 hPa Calm     51% 0.0 mm 0 W/m2
22:22 16.8 °C 6.9 °C 1024.0 hPa Calm     52% 0.0 mm 0 W/m2
22:27 16.7 °C 6.8 °C 1024.0 hPa Calm     52% 0.0 mm 0 W/m2
22:32 16.7 °C 6.8 °C 1024.0 hPa Calm     52% 0.0 mm 0 W/m2
22:37 16.6 °C 7 °C 1024.0 hPa Calm     53% 0.0 mm 0 W/m2
22:42 16.4 °C 6.8 °C 1024.0 hPa Calm     53% 0.0 mm 0 W/m2
22:48 16.4 °C 6.8 °C 1024.0 hPa Calm     53% 0.0 mm 0 W/m2
22:53 16.3 °C 6.7 °C 1024.0 hPa Calm     53% 0.0 mm 0 W/m2
22:58 16.2 °C 6.9 °C 1024.0 hPa Calm     54% 0.0 mm 0 W/m2
23:03 16.1 °C 7.1 °C 1024.0 hPa Calm     55% 0.0 mm 0 W/m2
23:08 16.1 °C 7.1 °C 1024.0 hPa Calm     55% 0.0 mm 0 W/m2
23:13 15.9 °C 6.9 °C 1024.0 hPa Calm     55% 0.0 mm 0 W/m2
23:18 15.8 °C 6.8 °C 1024.0 hPa Calm     55% 0.0 mm 0 W/m2
23:23 15.8 °C 7 °C 1024.0 hPa Calm     56% 0.0 mm 0 W/m2
23:28 15.8 °C 7.3 °C 1024.0 hPa Calm     57% 0.0 mm 0 W/m2
23:33 15.7 °C 7.2 °C 1024.0 hPa Calm     57% 0.0 mm 0 W/m2
23:38 15.6 °C 7.4 °C 1024.0 hPa Calm     58% 0.0 mm 0 W/m2
23:43 15.4 °C 7.2 °C 1024.0 hPa Calm     58% 0.0 mm 0 W/m2
23:48 15.3 °C 7.3 °C 1024.0 hPa Calm     59% 0.0 mm 0 W/m2
23:53 15.2 °C 7.2 °C 1024.0 hPa Calm     59% 0.0 mm 0 W/m2
23:58 15.2 °C 7.5 °C 1024.0 hPa Calm     60% 0.0 mm 0 W/m2
Juneau County Weather
Compliments of Weather Underground - 4 mb